OPS 4947 (TRANSIT 17)

Last updated on Fri Jun 19 2026 20:04:44 GMT+0000 (Coordinated Universal Time)

1 02965U 67092A 26170.35044692 .00000079 00000+0 99126-4 0 9991 2 02965 89.2533 10.1414 0049222 49.7773 124.0321 13.53499824896487
UTC large
Height (km)
Speed (km/s)
/
Latitude / Longitude
Inclination (degrees)
Orbital Period (minutes)
Azimuth
Elevation
Range (km)
Doppler Factor

Next 0 passes for location: London (51.5072 / 0.1276)

Sorry there are no passes over London.
OPS 4947 (TRANSIT 17)